Regional Weather Roundup
Issued by NWS

Home | Current Version | Previous Version | Text Only | Print | Product List | Glossary Off
Versions: 1 2 3 4 5 6 7 8 9 10 11 12 13 14 15 16 17 18 19 20 21 22 23 24 25 26 27 28 29 30 31 32 33 34 35 36 37 38 39 40 41 42 43 44 45 46 47 48 49 50

000
ASUS43 KIND 161809
RWRIN

WEATHER ROUNDUP FOR INDIANA
NATIONAL WEATHER SERVICE INDIANAPOLIS IN
200 PM EDT TUE SEP 16 2014

NOTE: "FAIR" INDICATES FEW OR NO CLOUDS BELOW 12,000 FEET WITH NO
SIGNIFICANT WEATHER AND/OR OBSTRUCTIONS TO VISIBILITY.

* - STATION DOES NOT REPORT WEATHER SUCH AS PRECIPITATION OR FOG.

+ - STATION NOT QUALITY CONTROLLED BY THE NATIONAL WEATHER SERVICE.
    USE DATA WITH CAUTION...ESPECIALLY DEWPOINT AND RELATIVE
    HUMIDITY OBSERVATIONS.

INZ001>003-010>013-019-020-161900-
NORTHWEST INDIANA

CITY           SKY/WX    TMP DP  RH WIND       PRES   REMARKS
GARY /AIRPORT/ MOSUNNY   64  46  52 N12       30.18F
KNOX *+        PTSUNNY   62  45  52 E3        30.16F
LA PORTE +     MOSUNNY   61  47  59 CALM      30.17F
6HR MIN TEMP:  45; 6HR MAX TEMP:  61;

MICHIGAN CITY+ CLOUDY    61  50  67 NW7       30.18F
MONTICELLO +   MOSUNNY   61  45  54 CALM      30.17F
RENSSELAER +   CLOUDY    61  50  67 CALM      30.18F
VALPARAISO     CLOUDY    63  48  58 VRB3      30.18F
6HR MIN TEMP:  52; 6HR MAX TEMP:  63;


$$

LMZ046-743>745-161900-
SOUTHERN LAKE MICHIGAN

STATION/POSITION TIME  TEMP WIND        PRES
                       AIR  DIR/SP/G
                 (UTC) (F)  (DEG/KT/KT) (MB)
MICHIGAN CITY    1800   60  270/  9/ 10   N/A

$$

INZ004-005-014>016-021>024-161900-
NORTH CENTRAL INDIANA

CITY           SKY/WX    TMP DP  RH WIND       PRES   REMARKS
ELKHART        PTSUNNY   63  43  48 CALM      30.17F
GOSHEN         MOSUNNY   64  45  49 MISG      30.16F
6HR MIN TEMP:  49; 6HR MAX TEMP:  64;

LOGANSPORT +   SUNNY     63  45  51 CALM      30.18F
PERU/GRISSOM   SUNNY     61  50  66 NE5       30.17F
6HR MIN TEMP:  50; 6HR MAX TEMP:  61;

ROCHESTER +    MOSUNNY   68  45  42 N6        30.17F
SOUTH BEND     NOT AVBL
WARSAW +       PTSUNNY   63  43  48 SW3       30.16F

$$

INZ006>009-017-018-025>027-161900-
NORTHEAST INDIANA

CITY           SKY/WX    TMP DP  RH WIND       PRES   REMARKS
ANGOLA *+      SUNNY     64  43  45 N7        30.15F
AUBURN +       SUNNY     63  41  45 SW3       30.16F
FORT WAYNE     MOSUNNY   63  49  60 NW8       30.17F
6HR MIN TEMP:  49; 6HR MAX TEMP:  63;

HUNTINGTON +   MOSUNNY   60  49  65 CALM      30.16F
6HR MIN TEMP:  47; 6HR MAX TEMP:  60;


$$

INZ028-029-035-036-043>045-051>053-161900-
WEST CENTRAL INDIANA

CITY           SKY/WX    TMP DP  RH WIND       PRES   REMARKS
GREENCASTLE +  CLOUDY    61  50  67 N3        30.18S
LAFAYETTE      PTSUNNY   62  48  60 CALM      30.17F
6HR MIN TEMP:  50; 6HR MAX TEMP:  62;

TERRE HAUTE    CLOUDY    61  51  70 N6        30.19S
6HR MIN TEMP:  55; 6HR MAX TEMP:  62;


$$

INZ030>032-037>040-046>048-054>057-064-065-161900-
CENTRAL INDIANA

CITY           SKY/WX    TMP DP  RH WIND       PRES   REMARKS
ANDERSON       CLOUDY    59  48  67 CALM      30.18F
CP ATTERBURY + CLOUDY    57  50  77 NE3       30.18F
COLUMBUS       CLOUDY    57  52  82 N6        30.19S
FRANKFORT +    MOSUNNY   63  49  59 CALM      30.18F
GREENWOOD *+   CLOUDY    61  52  72 CALM      30.18
INDIANAPOLIS   PTSUNNY   60  49  66 CALM      30.17F
6HR MIN TEMP:  53; 6HR MAX TEMP:  61;

-EAGLE CREEK   CLOUDY    63  47  55 VRB5      30.16F
6HR MIN TEMP:  52; 6HR MAX TEMP:  64;

KOKOMO *+      SUNNY     64  45  48 NE7       30.17F
MARION +       CLOUDY    60  47  64 CALM      30.17F
MT COMFORT *+  PTSUNNY   59  46  63 CALM      30.18S
SHELBYVILLE    CLOUDY    60  51  72 N3        30.17F
6HR MIN TEMP:  53; 6HR MAX TEMP:  61;

ZIONSVILLE +   CLOUDY    62  47  59 N5        30.17F
6HR MIN TEMP:  53; 6HR MAX TEMP:  62;


$$

INZ033-034-041-042-049-050-058-059-161900-
EAST CENTRAL INDIANA

CITY           SKY/WX    TMP DP  RH WIND       PRES   REMARKS
MUNCIE         CLOUDY    60  48  64 N3        30.17S
6HR MIN TEMP:  51; 6HR MAX TEMP:  61;


$$

INZ060-061-067>069-081>083-085>088-161900-
SOUTHWEST INDIANA

CITY           SKY/WX    TMP DP  RH WIND       PRES   REMARKS
EVANSVILLE     CLOUDY    64  53  67 N7        30.17F
6HR MIN TEMP:  59; 6HR MAX TEMP:  64;

WASHINGTON +   CLOUDY    61  53  74 N8        30.17F
6HR MIN TEMP:  56; 6HR MAX TEMP:  61;


$$

INZ062-063-066-070>080-084-089>092-161900-
SOUTH CENTRAL AND SOUTHEAST INDIANA

CITY           SKY/WX    TMP DP  RH WIND       PRES   REMARKS
BLOOMINGTON    CLOUDY    60  49  66 VRB6      30.18F
6HR MIN TEMP:  55; 6HR MAX TEMP:  60;

NORTH VERNON + CLOUDY    59  52  77 N3        30.18

$$



USA.gov is the U.S. government's official web portal to all federal, state and local government web resources and services.